When you browse on this site, cookies collect data to enhance your experience and personalize the content and advertising you see.
Visit our Privacy Policy to learn more. By continuing to use the site, you agree to this use of cookies and data.
  • In Switzerland
  • List of Countries
  • For 7 days
  • Water Temperature
  • Satellite Maps
  • Weather Map
  • Weather Widgets
  • user-avatar
    Login

    Hourly Weather Karabalta

    Today, 27 June, Thursday

    Time Temperature Precipitation Wind Pressure Humidity
    00:00 +23°C° 0 mm 2 mps 691 mmHg 33%
    01:00 +21°C° 0 mm 2 mps 691 mmHg 33%
    02:00 +21°C° 0 mm 3 mps 690 mmHg 33%
    03:00 +21°C° 0 mm 3 mps 690 mmHg 34%
    04:00 +21°C° 0 mm 3 mps 690 mmHg 34%
    05:00 +21°C° 0 mm 3 mps 690 mmHg 35%
    06:00 +24°C° 0 mm 2 mps 690 mmHg 32%
    07:00 +27°C° 0 mm 2 mps 691 mmHg 29%
    08:00 +30°C° 0 mm 1 mps 691 mmHg 26%
    09:00 +31°C° 0 mm 1 mps 691 mmHg 24%
    10:00 +32°C° 0 mm 1 mps 691 mmHg 23%
    11:00 +35°C° 0 mm 2 mps 691 mmHg 21%
    12:00 +35°C° 0.1 mm 2 mps 691 mmHg 21%
    13:00 +36°C° 0.1 mm 3 mps 691 mmHg 21%
    14:00 +36°C° 0.1 mm 3 mps 690 mmHg 20%
    15:00 +34°C° 0.1 mm 4 mps 690 mmHg 25%
    16:00 +33°C° 0.1 mm 6 mps 690 mmHg 29%
    17:00 +30°C° 0.1 mm 7 mps 690 mmHg 34%
    18:00 +29°C° 0 mm 6 mps 690 mmHg 33%
    19:00 +28°C° 0 mm 5 mps 690 mmHg 31%
    20:00 +27°C° 0 mm 4 mps 690 mmHg 30%
    21:00 +26°C° 0 mm 4 mps 690 mmHg 30%
    22:00 +26°C° 0 mm 4 mps 690 mmHg 31%
    23:00 +25°C° 0 mm 3 mps 690 mmHg 31%

    Tomorrow, 28 June, Friday

    Time Temperature Precipitation Wind Pressure Humidity
    00:00 +24°C° 0 mm 3 mps 689 mmHg 32%
    01:00 +24°C° 0 mm 3 mps 689 mmHg 33%
    02:00 +22°C° 0 mm 3 mps 689 mmHg 35%
    03:00 +24°C° 0 mm 3 mps 689 mmHg 35%
    04:00 +24°C° 0 mm 3 mps 689 mmHg 35%
    05:00 +24°C° 0 mm 3 mps 689 mmHg 34%
    06:00 +26°C° 0 mm 2 mps 690 mmHg 33%
    07:00 +28°C° 0 mm 1 mps 690 mmHg 31%
    08:00 +30°C° 0 mm 1 mps 690 mmHg 29%
    09:00 +31°C° 0.1 mm 1 mps 690 mmHg 27%
    10:00 +33°C° 0.1 mm 1 mps 690 mmHg 25%
    11:00 +34°C° 0.1 mm 1 mps 690 mmHg 24%
    12:00 +35°C° 0.2 mm 2 mps 690 mmHg 24%
    13:00 +35°C° 0.2 mm 3 mps 690 mmHg 24%
    14:00 +35°C° 0.2 mm 3 mps 689 mmHg 25%
    15:00 +34°C° 0.1 mm 4 mps 689 mmHg 27%
    16:00 +34°C° 0.1 mm 4 mps 689 mmHg 29%
    17:00 +33°C° 0.1 mm 4 mps 689 mmHg 31%
    18:00 +30°C° 0 mm 4 mps 689 mmHg 33%
    19:00 +28°C° 0 mm 4 mps 689 mmHg 36%
    20:00 +26°C° 0 mm 4 mps 689 mmHg 39%
    21:00 +26°C° 0 mm 4 mps 689 mmHg 37%
    22:00 +25°C° 0 mm 4 mps 689 mmHg 35%
    23:00 +25°C° 0 mm 3 mps 689 mmHg 34%

    Day after tomorrow, 29 June, Saturday

    Time Temperature Precipitation Wind Pressure Humidity
    00:00 +24°C° 0 mm 3 mps 689 mmHg 34%
    01:00 +24°C° 0 mm 3 mps 689 mmHg 34%
    02:00 +24°C° 0 mm 3 mps 689 mmHg 34%
    03:00 +22°C° 0 mm 3 mps 689 mmHg 35%
    04:00 +23°C° 0 mm 2 mps 689 mmHg 37%
    05:00 +23°C° 0 mm 2 mps 689 mmHg 38%
    06:00 +25°C° 0 mm 2 mps 690 mmHg 34%
    07:00 +28°C° 0 mm 1 mps 690 mmHg 31%
    08:00 +31°C° 0 mm 1 mps 691 mmHg 28%
    09:00 +32°C° 0 mm 1 mps 691 mmHg 26%
    10:00 +33°C° 0 mm 1 mps 691 mmHg 25%
    11:00 +35°C° 0 mm 1 mps 691 mmHg 24%
    12:00 +35°C° 0.1 mm 1 mps 690 mmHg 23%
    13:00 +36°C° 0.1 mm 1 mps 690 mmHg 22%
    14:00 +37°C° 0.1 mm 2 mps 690 mmHg 21%
    15:00 +37°C° 0 mm 2 mps 690 mmHg 22%
    16:00 +37°C° 0 mm 2 mps 690 mmHg 23%
    17:00 +36°C° 0 mm 2 mps 690 mmHg 24%
    18:00 +34°C° 0 mm 2 mps 690 mmHg 26%
    19:00 +31°C° 0 mm 2 mps 690 mmHg 28%
    20:00 +29°C° 0 mm 2 mps 689 mmHg 30%
    21:00 +28°C° 0 mm 2 mps 689 mmHg 31%
    22:00 +27°C° 0 mm 3 mps 689 mmHg 32%
    23:00 +26°C° 0 mm 3 mps 689 mmHg 33%

    30 June, Sunday

    Time Temperature Precipitation Wind Pressure Humidity
    00:00 +26°C° 0 mm 3 mps 689 mmHg 33%
    01:00 +26°C° 0 mm 3 mps 689 mmHg 33%
    02:00 +25°C° 0 mm 3 mps 688 mmHg 34%
    03:00 +25°C° 0 mm 3 mps 688 mmHg 34%
    04:00 +25°C° 0 mm 2 mps 688 mmHg 35%
    05:00 +24°C° 0 mm 2 mps 688 mmHg 36%
    06:00 +27°C° 0 mm 2 mps 689 mmHg 33%
    07:00 +30°C° 0 mm 2 mps 690 mmHg 30%
    08:00 +32°C° 0 mm 1 mps 690 mmHg 27%
    09:00 +34°C° 0 mm 1 mps 690 mmHg 25%
    10:00 +35°C° 0 mm 1 mps 690 mmHg 23%
    11:00 +37°C° 0 mm 2 mps 690 mmHg 21%
    12:00 +38°C° 0 mm 2 mps 690 mmHg 20%
    13:00 +39°C° 0 mm 2 mps 690 mmHg 19%
    14:00 +39°C° 0 mm 3 mps 690 mmHg 18%
    15:00 +39°C° 0 mm 3 mps 690 mmHg 19%
    16:00 +39°C° 0 mm 2 mps 690 mmHg 19%
    17:00 +39°C° 0 mm 2 mps 690 mmHg 19%
    18:00 +36°C° 0 mm 3 mps 690 mmHg 22%
    19:00 +34°C° 0 mm 3 mps 690 mmHg 25%
    20:00 +31°C° 0 mm 3 mps 690 mmHg 27%
    21:00 +29°C° 0 mm 3 mps 690 mmHg 30%
    22:00 +28°C° 0 mm 3 mps 690 mmHg 32%
    23:00 +26°C° 0 mm 3 mps 690 mmHg 35%

    1 July, Monday

    Time Temperature Precipitation Wind Pressure Humidity
    00:00 +26°C° 0 mm 3 mps 690 mmHg 35%
    01:00 +25°C° 0 mm 3 mps 690 mmHg 35%
    02:00 +25°C° 0 mm 2 mps 690 mmHg 35%
    03:00 +25°C° 0 mm 2 mps 690 mmHg 36%
    04:00 +24°C° 0 mm 2 mps 690 mmHg 37%
    05:00 +24°C° 0 mm 2 mps 690 mmHg 38%
    06:00 +27°C° 0 mm 2 mps 690 mmHg 34%
    07:00 +29°C° 0 mm 2 mps 691 mmHg 31%
    08:00 +32°C° 0 mm 1 mps 691 mmHg 27%
    09:00 +35°C° 0 mm 2 mps 691 mmHg 25%
    10:00 +36°C° 0 mm 2 mps 692 mmHg 22%
    11:00 +38°C° 0 mm 2 mps 692 mmHg 20%
    12:00 +38°C° 0 mm 2 mps 692 mmHg 19%
    13:00 +39°C° 0 mm 3 mps 691 mmHg 18%
    14:00 +40°C° 0 mm 3 mps 691 mmHg 17%
    15:00 +40°C° 0 mm 4 mps 691 mmHg 18%
    16:00 +38°C° 0 mm 4 mps 691 mmHg 20%
    17:00 +39°C° 0 mm 5 mps 691 mmHg 21%
    18:00 +35°C° 0 mm 4 mps 691 mmHg 25%
    19:00 +31°C° 0 mm 3 mps 691 mmHg 30%
    20:00 +28°C° 0 mm 3 mps 690 mmHg 34%
    21:00 +27°C° 0 mm 3 mps 691 mmHg 34%
    22:00 +26°C° 0 mm 2 mps 691 mmHg 34%
    23:00 +26°C° 0 mm 2 mps 691 mmHg 34%

    2 July, Tuesday

    Time Temperature Precipitation Wind Pressure Humidity
    00:00 +25°C° 0 mm 2 mps 691 mmHg 34%
    01:00 +25°C° 0 mm 2 mps 691 mmHg 34%
    02:00 +25°C° 0 mm 2 mps 691 mmHg 34%
    03:00 +25°C° 0 mm 2 mps 691 mmHg 34%
    04:00 +25°C° 0 mm 2 mps 691 mmHg 34%
    05:00 +24°C° 0 mm 2 mps 691 mmHg 35%
    06:00 +27°C° 0 mm 2 mps 691 mmHg 32%
    07:00 +29°C° 0 mm 2 mps 692 mmHg 30%
    08:00 +32°C° 0 mm 2 mps 692 mmHg 27%
    09:00 +34°C° 0 mm 2 mps 692 mmHg 25%
    10:00 +36°C° 0 mm 2 mps 692 mmHg 24%
    11:00 +38°C° 0 mm 2 mps 692 mmHg 22%
    12:00 +38°C° 0 mm 2 mps 692 mmHg 21%
    13:00 +39°C° 0 mm 2 mps 692 mmHg 20%
    14:00 +40°C° 0 mm 2 mps 692 mmHg 18%
    15:00 +40°C° 0 mm 2 mps 692 mmHg 19%
    16:00 +39°C° 0 mm 3 mps 692 mmHg 19%
    17:00 +39°C° 0 mm 3 mps 692 mmHg 20%
    18:00 +36°C° 0 mm 3 mps 692 mmHg 22%
    19:00 +32°C° 0 mm 2 mps 691 mmHg 24%
    20:00 +29°C° 0 mm 2 mps 691 mmHg 27%
    21:00 +28°C° 0 mm 2 mps 691 mmHg 28%
    22:00 +27°C° 0 mm 2 mps 691 mmHg 29%
    23:00 +27°C° 0 mm 3 mps 691 mmHg 30%
    Show more